loading
|
Showing default

TRAAC, 205

Orbit data source: Space-Track

TRAAC, 205 is a payload satellite owned by USN BuWeps (US) in LEO that was launched on Wed, 15 Nov 1961 UTC via a THOR ABLESTAR launch vehicle from the Air Force Eastern Test Range (AFETR). Payloads include a variety of satellites, spacecraft, and rockets equipped with specific instruments for various scientific and technological missions. These include communications satellites like Starlink; space stations such as the ISS; scientific satellites like the Hubble; Earth observation satellites from companies like Planet Labs, Umbra, and HawkEye 360; GPS; miniature CubeSats for education and research; and military/defense satellites.

Loading next visibility...
Loading greatness...
TRAAC details
Identifier
205, 1961-031B
Orbit
LEO
Last TLE update8 hours ago
Origin
Flag of USUSN BuWeps (US)
ManufacturerAPL
Mission statusUnknown
MissionDefense Technology
Bus & MotorTRANSIT 4, Unknown motor
Mass105 kg wet, 105 kg dry
Launch date (UTC)
1961-11-15 (63 years ago)
Launch vehicle
THOR ABLESTAR
Launch site
Air Force Eastern Test Range (AFETR)
Object type
Payload
Rocket body
Debris
Radar Cross Section0.56 m², Medium (>0.1 m² and < 1m²)

Expand to show TLE details & history

TLE from 8 hours ago
0 TRAAC
1 00205U 61031B   24258.91539651  .00000148  00000-0  15458-3 0  9997
2 00205  32.4399 118.3946 0101983 159.9437 200.5230 13.62509723131691
Epoch: 2024-09-14T21:58Z
Definitive object data (Epoch: 2024-09-14T21:58:10.258Z)
Latitude-0.00005°
Longitude154.48552°
Altitude1,096.126 km
Speed7.271 km/s
True Right ascension07h 53m 34s
True Declination0° 00' 00"
Sunlit
Object was in daylight at TLE epoch
Predictive object data (real-time)
Latitude-13.52927°
Longitude-5.0639°
Altitude972.652 km
Speed7.394 km/s
Apparent Right ascension18h 59m 01s
Apparent Declination-61° 47' 32"
Sunlit
Object is in full shadow
Predictive observer data (real-time)
Local Sidereal Time22:38:29
Azimuth204.444° SW
Elevation-20.906°
Doppler factor1
Orbital elements
Apogee1,105.522 km
Perigee954.422 km
Semi-major axis7,408.109 km
Eccentricity0.0101983
Inclination32.4399°
RAAN118.3946°
Arg. of periapsis159.9437°
True anomaly200.11813°
Mean anomaly200.523°
Eccentric anomaly200.32009°
Mean motion3.40394 °/min
BSTAR0.00015458
Period105.76 mins
No data available
Other satellites on launch #31 in the year 1961 (1961-11-15 UTC)

TRAAC Visibility forecast

Observer location: 39.9160978°, -105.1181434

TRAAC is not visible in the next 10 days
Span
Click to sort rows by Start time (UTC) header in descending order
Start Az.
Max El. time (UTC)
Max El. Az.
Max El.
End time (UTC)
End Az.